Time+03,TemperatureF,Dew PointF,Humidity,Sea Level PressureIn,VisibilityMPH,Wind Direction,Wind SpeedMPH,Gust SpeedMPH,PrecipitationIn,Events,Conditions,WindDirDegrees,DateUTC
12:55 AM,59.9,51.4,74,29.95,6.2,NW,5.8,-,N/A,,Clear,320,2013-02-18 21:55:00
1:55 AM,59.5,51.8,76,29.94,6.2,NW,6.9,-,N/A,,Clear,320,2013-02-18 22:55:00
2:55 AM,58.3,52.0,80,29.93,6.2,NW,9.2,-,N/A,,Clear,320,2013-02-18 23:55:00
3:55 AM,57.4,52.0,82,29.93,6.2,NW,6.9,-,N/A,,Clear,320,2013-02-19 00:55:00
4:55 AM,58.5,52.9,82,29.93,6.2,NNW,8.1,-,N/A,,Clear,340,2013-02-19 01:55:00
5:55 AM,56.5,51.6,84,29.96,6.2,NW,6.9,-,N/A,,Clear,320,2013-02-19 02:55:00
6:55 AM,58.1,52.5,82,29.98,6.2,NNW,8.1,-,N/A,,Clear,330,2013-02-19 03:55:00
7:55 AM,63.7,52.7,67,29.99,6.2,NNW,8.1,-,N/A,,Clear,340,2013-02-19 04:55:00
8:55 AM,68.4,52.7,57,30.01,6.2,NNW,12.7,-,N/A,,Clear,340,2013-02-19 05:55:00
9:55 AM,71.2,50.2,47,30.00,6.2,North,9.2,-,N/A,,Partly Cloudy,350,2013-02-19 06:55:00
10:55 AM,73.9,46.2,37,29.98,6.2,North,9.2,-,N/A,,Partly Cloudy,10,2013-02-19 07:55:00
11:55 AM,76.5,43.5,31,29.95,6.2,NNW,6.9,-,N/A,,Partly Cloudy,340,2013-02-19 08:55:00
12:55 PM,77.7,42.8,29,29.91,6.2,NNW,3.5,-,N/A,,Scattered Clouds,340,2013-02-19 09:55:00
1:55 PM,78.6,42.4,28,29.89,6.2,Calm,Calm,-,N/A,,Partly Cloudy,0,2013-02-19 10:55:00
2:55 PM,79.5,41.2,25,29.89,6.2,Calm,Calm,-,N/A,,Scattered Clouds,0,2013-02-19 11:55:00
3:55 PM,75.7,48.9,39,29.89,6.2,East,13.8,-,N/A,,Clear,80,2013-02-19 12:55:00
4:55 PM,73.6,46.2,38,29.90,6.2,East,12.7,-,N/A,,Clear,90,2013-02-19 13:55:00
5:55 PM,71.4,39.9,32,29.91,6.2,East,6.9,-,N/A,,Clear,90,2013-02-19 14:55:00
6:55 PM,68.9,56.1,64,29.93,6.2,ENE,5.8,-,N/A,,Clear,70,2013-02-19 15:55:00
7:55 PM,68.2,56.7,67,29.95,6.2,NE,3.5,-,N/A,,Clear,50,2013-02-19 16:55:00
8:55 PM,67.3,56.3,68,29.94,6.2,Calm,Calm,-,N/A,,Clear,0,2013-02-19 17:55:00
9:55 PM,64.2,53.8,69,29.94,6.2,Calm,Calm,-,N/A,,Clear,0,2013-02-19 18:55:00
10:55 PM,63.5,55.8,76,29.94,6.2,Calm,Calm,-,N/A,,Clear,0,2013-02-19 19:55:00
11:55 PM,64.2,55.6,73,29.93,6.2,North,5.8,-,N/A,,Clear,360,2013-02-19 20:55:00